Weather in Pustoshka

Russia / Vologda Oblast     58°52′44″N   37°24′45″E
temp.,
°C
wind,
m/s
gust,
m/s
humid.,
%
clouds,
%
prec.,
mm/h
press.,
hPa
HPBL,
m
9 may, sun
sun900:00+6nw2699100 3.5 1004428
03:00+4nw61196100 6.2 1005724
06:00+2nw51297100 2.3 1007642
09:00+5nnw61282100 2.6 1009969
12:00+9nnw6948100 0.0 10111647
15:00+12nnw5837100 0.0 10132405
18:00+11nw47465 0.0 10152317
21:00+5nw311600 0.0 1019309
10 may, mon
mon1000:00+2nw27750 0.0 1022155
03:00+1nw23765 0.0 102458
06:00+3w126730 0.0 102670
09:00+10sw22435 0.0 1027644
12:00+13ssw33319 0.0 10271549
15:00+15sw35295 0.0 10271956
18:00+12s2551100 0.0 1027149
21:00+8s265762 0.0 1029160
11 may, tue
tue1100:00+8s247072 0.0 102980
03:00+6ssw2676100 0.0 1030110
06:00+8ssw2671100 0.0 1030159
09:00+14s3450100 0.0 1030486
12:00+18s234299 0.0 10301090
15:00+20se2241100 0.0 10301270
18:00+18se33497 0.0 1029686
21:00+11se22675 0.0 103032
12 may, wed
wed1200:00+9sse227045 0.0 103019
03:00+8se127696 0.0 103010
06:00+9ese24785 0.0 103098
09:00+15ese35510 0.0 1030495
12:00+19ese35390 0.0 1029881
15:00+21ese46425 0.0 10271004
18:00+21ese37545 0.0 1026977
21:00+14ese3579100 0.0 102690
13 may, thu
thu1300:00+14ese2782100 0.0 1026167
03:00+14e259289 0.3 1025133
06:00+14ese3108793 0.0 1024301
09:00+16se41170100 0.0 1023490
12:00+20se61155100 0.0 10231341
15:00+21se7114962 0.0 10211415
18:00+20se511605 0.2 10201524
21:00+15se413755 0.4 1020437